[Date Prev][Date Next][Thread Prev][Thread Next] - [Date Index][Thread Index][Author Index]
2 Line ISS Keps 10-16
- Subject: [sarex] 2 Line ISS Keps 10-16
- From: "Dave Larsen PhD" <doc@xxxxxxxxxxx>
- Date: Sat, 16 Oct 2004 00:35:14 -0700
ISS
1 25544U 98067A 04290.24321817 .00018962 00000-0 16447-3 0 9264
2 25544 51.6354 68.0443 0009188 231.5007 205.5542 15.69112869337335
----
Via the sarex mailing list at AMSAT.ORG courtesy of AMSAT-NA.
To unsubscribe, send "unsubscribe sarex" to Majordomo@amsat.org
AMSAT Home